Humidity-temperature Sensor

Selected Measurement Type: Relative Humidity

 
Relative Humidity [%]     6 entries per hour
Showing data from 5/10/2022 (00:00:00 Z) to 5/7/2022 (00:01:00 Z)
Previous Next [ Day | 3-Days | 7-Days ]
First Last
Prev [ Day | 3-Days | 7-Days ] Next
First Last

Start Time:     :
End Time:     :     
Time (in GMT) :00 :50 :40 :30 :20 :10
Previous Next [ Day | 3-Days | 7-Days ]
First Last
Prev [ Day | 3-Days | 7-Days ] Next
First Last


123 => good data
MM => data is determined as missing
-- => data not received/configured
Back to Top Back to Top
5/10/2022 00:00 to 23:10 83.63 83.59 84.18 83.83 83.24 84.59
5/9/2022 23:00 to 22:10 84.43 84.39 83.57 83.38 83.85 84.59
5/9/2022 22:00 to 21:10 85.00 84.33 84.55 84.33 84.98 85.00
5/9/2022 21:00 to 20:10 84.86 85.15 84.94 84.78 85.00 84.66
5/9/2022 20:00 to 19:10 84.94 84.74 84.51 83.83 83.63 84.18
5/9/2022 19:00 to 18:10 84.78 84.68 84.66 84.78 84.84 84.80
5/9/2022 18:00 to 17:10 84.43 84.41 84.80 85.15 84.63 83.63
5/9/2022 17:00 to 16:10 83.38 83.18 84.29 84.37 84.43 83.92
5/9/2022 16:00 to 15:10 83.18 83.09 82.97 82.42 82.46 82.60
5/9/2022 15:00 to 14:10 83.46 84.49 85.50 87.59 89.01 89.28
5/9/2022 14:00 to 13:10 87.12 84.96 84.66 85.54 86.67 87.10
5/9/2022 13:00 to 12:10 86.94 85.39 83.01 82.64 82.31 81.88
5/9/2022 12:00 to 11:10 82.48 83.73 84.06 83.98 84.39 85.89
5/9/2022 11:00 to 10:10 87.43 88.23 89.01 89.55 87.76 84.63
5/9/2022 10:00 to 9:10 85.03 84.59 85.21 85.27 85.39 85.91
5/9/2022 09:00 to 8:10 85.79 85.68 85.00 85.11 84.63 85.09
5/9/2022 08:00 to 7:10 85.42 84.53 83.73 84.12 84.90 84.57
5/9/2022 07:00 to 6:10 84.20 83.92 84.04 85.09 85.19 85.87
5/9/2022 06:00 to 5:10 86.55 86.13 86.03 86.50 86.30 85.79
5/9/2022 05:00 to 4:10 85.95 85.95 85.83 86.20 86.65 86.46
5/9/2022 04:00 to 3:10 85.97 86.20 86.46 86.50 86.53 86.46
5/9/2022 03:00 to 2:10 85.72 85.83 85.35 84.90 85.09 85.19
5/9/2022 02:00 to 1:10 85.76 85.52 84.80 84.43 83.67 84.08
5/9/2022 01:00 to 0:10 83.59 84.26 84.33 84.41 84.14 84.26
5/9/2022 00:00 to 23:10 84.84 84.51 84.72 84.41 85.29 85.13
5/8/2022 23:00 to 22:10 84.16 84.04 84.72 85.09 84.90 84.35
5/8/2022 22:00 to 21:10 84.20 84.88 85.33 85.09 85.62 85.79
5/8/2022 21:00 to 20:10 85.60 85.35 85.09 84.90 85.21 85.52
5/8/2022 20:00 to 19:10 85.97 86.46 86.75 86.38 86.85 86.94
5/8/2022 19:00 to 18:10 86.03 86.09 85.72 86.13 85.83 86.22
5/8/2022 18:00 to 17:10 86.18 86.38 86.46 86.42 86.28 85.72
5/8/2022 17:00 to 16:10 85.74 85.39 84.86 85.13 85.44 85.17
5/8/2022 16:00 to 15:10 85.97 86.38 86.85 87.41 87.84 87.90
5/8/2022 15:00 to 14:10 88.21 88.29 88.21 88.33 88.81 89.07
5/8/2022 14:00 to 13:10 89.36 88.99 88.35 88.70 89.11 89.61
5/8/2022 13:00 to 12:10 89.94 90.43 90.47 90.53 90.35 90.35
5/8/2022 12:00 to 11:10 90.35 90.74 91.27 91.13 91.11 90.80
5/8/2022 11:00 to 10:10 91.17 91.07 90.68 90.55 90.57 90.84
5/8/2022 10:00 to 9:10 91.37 91.13 90.86 90.66 90.74 90.49
5/8/2022 09:00 to 8:10 90.96 90.98 90.47 90.47 91.00 91.33
5/8/2022 08:00 to 7:10 91.25 91.25 91.58 91.50 91.54 91.66
5/8/2022 07:00 to 6:10 91.87 91.58 91.50 91.19 91.35 91.60
5/8/2022 06:00 to 5:10 91.87 92.18 93.00 95.09 96.94 97.68
5/8/2022 05:00 to 4:10 97.40 96.98 96.10 95.18 94.91 93.82
5/8/2022 04:00 to 3:10 93.35 92.98 91.83 90.45 89.96 89.50
5/8/2022 03:00 to 2:10 89.55 89.59 88.70 89.09 89.22 88.66
5/8/2022 02:00 to 1:10 88.72 89.32 90.33 90.06 90.45 91.99
5/8/2022 01:00 to 0:10 92.92 93.16 93.55 94.64 95.16 93.92
5/8/2022 00:00 to 23:10 91.72 90.33 89.63 89.50 89.71 88.87
5/7/2022 23:00 to 22:10 87.63 88.03 88.13 87.74 87.80 88.83
5/7/2022 22:00 to 21:10 89.92 92.14 94.46 94.79 95.01 95.36
5/7/2022 21:00 to 20:10 95.07 95.73 96.64 96.76 96.78 95.98
5/7/2022 20:00 to 19:10 95.26 94.72 93.64 92.30 90.61 90.37
5/7/2022 19:00 to 18:10 90.45 90.68 91.00 92.50 93.68 95.11
5/7/2022 18:00 to 17:10 96.55 97.17 97.40 97.48 97.70 97.93
5/7/2022 17:00 to 16:10 97.83 97.87 97.97 98.36 98.44 98.73
5/7/2022 16:00 to 15:10 98.90 99.06 99.24 99.33 99.61 99.49
5/7/2022 15:00 to 14:10 99.59 99.61 99.61 99.88 99.76 99.84
5/7/2022 14:00 to 13:10 99.72 99.51 99.20 98.69 98.48 97.60
5/7/2022 13:00 to 12:10 96.20 95.48 95.65 95.87 95.32 94.52
5/7/2022 12:00 to 11:10 94.05 94.83 95.32 95.18 95.40 95.77
5/7/2022 11:00 to 10:10 95.61 95.57 95.34 95.46 95.67 95.92
5/7/2022 10:00 to 9:10 95.65 95.40 95.48 95.73 95.57 96.16
5/7/2022 09:00 to 8:10 96.33 95.98 94.91 93.59 90.59 88.25
5/7/2022 08:00 to 7:10 88.46 88.42 87.68 87.59 87.74 87.20
5/7/2022 07:00 to 6:10 87.61 87.86 88.07 88.15 88.13 87.94
5/7/2022 06:00 to 5:10 87.80 87.96 87.74 87.41 86.77 87.18
5/7/2022 05:00 to 4:10 87.41 87.04 86.65 86.42 86.71 86.55
5/7/2022 04:00 to 3:10 86.90 87.20 87.39 87.41 87.72 87.92
5/7/2022 03:00 to 2:10 87.94 88.27 88.13 88.31 89.32 90.49
5/7/2022 02:00 to 1:10 89.69 89.59 89.92 89.75 90.47 91.48
5/7/2022 01:00 to 0:10 91.91 92.65 93.86 94.58 95.14 95.55